Overview Statistics Trail Chart Weather Telemetry Raw packets
 

This is the latest recevied weather packets stored in our database for station/object KI5RAB. If no packets are shown the sender has not sent any weather packets the latest 10 day(s).

<< 6 7 8 9 10 11 12 >>
Time Temp. Humidity Pressure Rain* Wind** Luminosity Snow
1788618044 27.78° C 84% 1017.8 hPa 0 mm - 157 W/m² -
1788617739 27.78° C 85% 1017.8 hPa 0 mm - 123 W/m² -
1788617435 27.78° C 85% 1018 hPa 0 mm - 95 W/m² -
1788617130 27.78° C 85% 1017.9 hPa 0 mm - 102 W/m² -
1788616829 27.78° C 85% 1017.9 hPa 0 mm - 110 W/m² -
1788616524 28.33° C 84% 1017.9 hPa 0 mm - 121 W/m² -
1788616220 28.33° C 84% 1017.9 hPa 0 mm - 142 W/m² -
1788615920 28.33° C 84% 1017.8 hPa 0 mm - 186 W/m² -
1788615613 28.33° C 84% 1017.7 hPa 0 mm - 160 W/m² -
1788615309 28.33° C 85% 1017.8 hPa 0 mm - 135 W/m² -
1788615008 27.78° C 87% 1017.7 hPa 0 mm - 139 W/m² -
1788614702 27.22° C 88% 1017.7 hPa 0 mm - 106 W/m² -
1788614397 26.67° C 90% 1017.7 hPa 0 mm - 77 W/m² -
1788614093 26.11° C 91% 1017.6 hPa 0 mm - 74 W/m² -
1788613788 25.56° C 93% 1017.5 hPa 0 mm - 55 W/m² -
1788613487 25.56° C 94% 1017.4 hPa 0 mm - 57 W/m² -
1788613187 25° C 94% 1017.4 hPa 0 mm - 44 W/m² -
1788612882 25° C 95% 1017.2 hPa 0 mm - 31 W/m² -
1788612577 24.44° C 95% 1017.5 hPa 0 mm - 27 W/m² -
1788612274 24.44° C 95% 1017.4 hPa 0 mm - 19 W/m² -
1788611974 24.44° C 95% 1017.4 hPa 0 mm - 17 W/m² -
1788611671 24.44° C 95% 1017.1 hPa 0 mm - 15 W/m² -
1788611365 24.44° C 94% 1017.2 hPa 0 mm - 12 W/m² -
1788611065 24.44° C 94% 1017 hPa 0 mm - 9 W/m² -
1788610761 24.44° C 94% 1016.9 hPa 0 mm - 6 W/m² -

* Rain latest hour (hover to see other rain measurements)
** Current wind speed in m/s (hover to see current wind gust speed)